Regional Weather Roundup
Issued by NWS

Home | Current Version | Previous Version | Graphics & Text | Print | Product List | Glossary On
Versions: 1 2 3 4 5 6 7 8 9 10 11 12 13 14 15 16 17 18 19 20 21 22 23 24 25 26 27 28 29 30 31 32 33 34 35 36 37 38 39 40 41 42 43 44 45 46 47 48 49 50
895
ASUS44 KJAN 271210
RWRMS

MISSISSIPPI HOURLY WEATHER ROUNDUP
NATIONAL WEATHER SERVICE JACKSON MS
700 AM CDT FRI MAR 27 2015

NOTE: "FAIR: INDICATES FEW OR NO CLOUDS BELOW 12,000 FEET WITH NO
SIGNIFICANT WEATHER AND/OR OBSTRUCTIONS TO VISIBILITY.

MSZ001>002-007>008-010>013-018>021-025>028-034>036-271300-
NORTHWEST MISSISSIPPI

CITY           SKY/WX    TMP DP  RH WIND       PRES   REMARKS
CLARKSDALE       N/A     37  37 100 CALM      30.09R
CLEVELAND      PTSUNNY   39  39  99 NW5       30.08R
GREENWOOD      CLEAR     37  33  85 CALM      30.07R
6HR MIN TEMP:  37; 6HR MAX TEMP:  45;

GREENVILLE     PTCLDY    39  36  89 NW3       30.08R
6HR MIN TEMP:  37; 6HR MAX TEMP:  44;

OLIVE BRANCH   MOCLDY    34  34 100 CALM      30.06R
OXFORD         FAIR      30  30 100 CALM      30.06F FOG
TUNICA         MOSUNNY   37  36  93 CALM      30.09R FOG
$$

MSZ003>006-009-014>017-022>024-029>033-037>039-271300-
NORTHEAST MISSISSIPPI

CITY           SKY/WX    TMP DP  RH WIND       PRES   REMARKS
COLUMBUS AFB   CLEAR     41  33  73 N9        30.01R
6HR MIN TEMP:  41; 6HR MAX TEMP:  47; 6HR PCP:  0.01;

CORINTH        FAIR      36  34  93 NW5       30.03R WCI  32
GOLDN TRIANGLE CLOUDY    43  34  70 N9        30.01R
STARKVILLE     PTSUNNY   39  36  87 CALM      30.04R
TUPELO         CLEAR     37  33  85 N5        30.04R WCI  33
6HR MIN TEMP:  37; 6HR MAX TEMP:  43;

$$

MSZ040-058-271300-
CENTRAL MISSISSIPPI

CITY           SKY/WX    TMP DP  RH WIND       PRES   REMARKS
JACKSON INTL   CLEAR     42  38  85 N8        30.05R
6HR MIN TEMP:  42; 6HR MAX TEMP:  49;

JACKSON HAWKNS CLEAR     41  38  89 N3        30.05R
6HR MIN TEMP:  41; 6HR MAX TEMP:  49;

MERIDIAN KEY   CLOUDY    46  38  73 N8        30.00R
6HR MIN TEMP:  46; 6HR MAX TEMP:  49;

MERIDIAN NAS   CLOUDY    46  38  73 NW14      29.99R
RAYMOND        FAIR      41  36  81 VRB3      30.06R
VICKSBURG      CLEAR     40  36  86 NW5       30.08R
6HR MIN TEMP:  40; 6HR MAX TEMP:  49; 6HR PCP: TRACE;

$$

MSZ059>079-271300-
SOUTH MISSISSIPPI

CITY           SKY/WX    TMP DP  RH WIND       PRES   REMARKS
BROOKHAVEN       N/A     43  43 100 NW5       30.05R
HATTIESBURG    CLOUDY    49  41  74 N9        30.01R
6HR MIN TEMP:  49; 6HR MAX TEMP:  56;

MCCOMB         CLEAR     44  40  85 NW10      30.03R
6HR MIN TEMP:  43; 6HR MAX TEMP:  52;

NATCHEZ        CLEAR     39  36  87 CALM      30.07R
6HR MIN TEMP:  39; 6HR MAX TEMP:  50;

PINE BELT      CLOUDY    46  37  71 N9        30.01R
6HR MIN TEMP:  46; 6HR MAX TEMP:  54;

$$

MSZ080>082-271300-
COASTAL MISSISSIPPI

CITY           SKY/WX    TMP DP  RH WIND       PRES   REMARKS
BAY ST LOUIS   CLOUDY    52  43  71 N12G17    29.99
BILOXI         CLOUDY    52  46  79 N18       29.97R
6HR MIN TEMP:  52; 6HR MAX TEMP:  61;

PASCAGOULA     CLOUDY    52  46  80 N15       29.95R
6HR MIN TEMP:  52; 6HR MAX TEMP:  64;

GULFPORT       CLOUDY    51  44  77 N13       29.97R
6HR MIN TEMP:  51; 6HR MAX TEMP:  60;

$$



USA.gov is the U.S. government's official web portal to all federal, state and local government web resources and services.